Precipitable_Water
0.84 0.84 0.81 0.83 0.86 0.85 0.84 0.83 0.84 0.83 0.87 0.95 0.95 0.97 0.99 1.03 1.06 1.07 1.07 1.07 1.07 1.09 1.12 1.12 1.14 1.15 1.17 1.17 1.19 1.19 1.20 1.23 1.25 1.25 1.27 1.36 1.28 1.31 1.43 1.33 1.40 1.43
0.83 0.84 0.85 0.87 0.88 0.91 0.89 0.89 0.87 0.86 0.89 0.96 0.99 1.02 1.07 1.07 1.10 1.12 1.12 1.12 1.12 1.13 1.16 1.17 1.17 1.17 1.18 1.17 1.17 1.16 1.18 1.22 1.21 1.27 1.25 1.24 1.23 1.25 1.29 1.32 1.23 1.28
0.80 0.82 0.83 0.83 0.83 0.83 0.85 0.88 0.92 0.96 0.96 0.98 1.02 1.06 1.07 1.10 1.11 1.13 1.14 1.12 1.11 1.15 1.18 1.17 1.16 1.17 1.19 1.22 1.24 1.25 1.24 1.25 1.23 1.26 1.24 1.23 1.24 1.20 1.23 1.27 1.26 1.24
0.80 0.80 0.81 0.82 0.84 0.83 0.85 0.88 0.95 0.99 1.02 1.02 1.04 1.07 1.09 1.10 1.11 1.11 1.11 1.13 1.13 1.14 1.17 1.15 1.14 1.15 1.16 1.19 1.20 1.20 1.23 1.25 1.28 1.31 1.27 1.25 1.24 1.24 1.24 1.24 1.21 1.22
0.78 0.80 0.84 0.84 0.84 0.85 0.88 0.90 0.93 0.98 1.01 1.04 1.07 1.09 1.08 1.08 1.08 1.09 1.08 1.08 1.09 1.08 1.10 1.09 1.10 1.11 1.14 1.16 1.17 1.16 1.20 1.18 1.19 1.21 1.20 1.19 1.21 1.22 1.22 1.25 1.24 1.19
0.80 0.82 0.82 0.83 0.85 0.84 0.87 0.89 0.93 0.97 1.00 1.02 1.04 1.06 1.06 1.06 1.05 1.04 1.04 1.03 1.04 1.03 1.03 1.06 1.07 1.10 1.13 1.16 1.17 1.15 1.13 1.11 1.14 1.16 1.18 1.20 1.22 1.24 1.22 1.19 1.18 1.18
0.80 0.83 0.84 0.87 0.86 0.88 0.88 0.92 0.94 0.95 0.99 1.02 1.04 1.04 1.04 1.03 1.01 1.02 1.04 1.06 1.05 1.06 1.06 1.07 1.09 1.07 1.10 1.13 1.16 1.14 1.15 1.16 1.17 1.20 1.19 1.21 1.24 1.25 1.26 1.24 1.21 1.17
0.80 0.82 0.85 0.86 0.85 0.87 0.88 0.92 0.93 0.93 0.94 0.98 1.00 1.04 1.05 1.02 1.01 1.03 1.05 1.06 1.06 1.07 1.10 1.10 1.08 1.07 1.10 1.11 1.10 1.12 1.16 1.21 1.22 1.24 1.22 1.22 1.26 1.25 1.26 1.28 1.28 1.22
0.82 0.82 0.84 0.85 0.85 0.87 0.87 0.87 0.90 0.91 0.93 0.93 0.97 1.01 1.05 1.05 1.03 1.02 1.04 1.06 1.07 1.10 1.13 1.13 1.13 1.10 1.12 1.08 1.10 1.15 1.17 1.21 1.26 1.25 1.23 1.22 1.22 1.22 1.24 1.27 1.25 1.26
0.82 0.84 0.82 0.81 0.83 0.86 0.85 0.87 0.88 0.91 0.92 0.91 0.92 0.95 1.00 1.05 1.06 1.04 1.05 1.06 1.09 1.12 1.15 1.15 1.14 1.12 1.10 1.09 1.12 1.14 1.16 1.20 1.23 1.23 1.23 1.20 1.18 1.19 1.22 1.23 1.20 1.18
0.83 0.84 0.81 0.81 0.82 0.84 0.84 0.86 0.88 0.87 0.87 0.86 0.90 0.94 0.99 0.99 1.01 1.05 1.06 1.08 1.10 1.11 1.13 1.14 1.15 1.14 1.11 1.11 1.12 1.14 1.16 1.17 1.19 1.18 1.15 1.15 1.16 1.19 1.22 1.25 1.24 1.23
0.83 0.82 0.81 0.81 0.82 0.83 0.85 0.86 0.87 0.90 0.88 0.87 0.85 0.86 0.91 0.95 0.95 0.99 1.08 1.09 1.10 1.13 1.14 1.14 1.16 1.18 1.17 1.16 1.12 1.10 1.11 1.12 1.11 1.08 1.07 1.10 1.15 1.18 1.22 1.25 1.25 1.25
0.81 0.80 0.81 0.82 0.84 0.85 0.86 0.87 0.89 0.90 0.89 0.84 0.83 0.84 0.88 0.92 0.96 0.96 1.04 1.12 1.13 1.14 1.15 1.16 1.16 1.17 1.15 1.15 1.13 1.10 1.08 1.06 1.04 1.02 1.02 1.07 1.13 1.17 1.19 1.22 1.25 1.28
0.81 0.81 0.82 0.84 0.86 0.87 0.89 0.92 0.96 0.99 1.01 1.00 0.96 0.86 0.85 0.90 0.94 0.98 1.01 1.07 1.11 1.12 1.16 1.18 1.18 1.17 1.16 1.15 1.12 1.08 1.05 1.03 1.02 0.98 0.99 1.06 1.11 1.16 1.19 1.20 1.24 1.30
0.81 0.81 0.83 0.86 0.88 0.91 0.95 0.98 1.03 1.06 1.05 1.01 0.96 0.91 0.87 0.89 0.97 1.01 1.02 1.04 1.10 1.15 1.18 1.19 1.17 1.16 1.16 1.12 1.07 1.05 1.04 0.99 0.97 0.95 1.01 1.07 1.11 1.13 1.14 1.19 1.26 1.31
0.81 0.83 0.85 0.90 0.96 0.97 1.00 1.02 1.07 1.09 1.04 0.98 0.94 0.91 0.89 0.92 0.99 1.03 1.06 1.09 1.10 1.14 1.18 1.18 1.17 1.17 1.15 1.07 1.02 1.02 1.01 1.00 0.96 0.95 1.04 1.12 1.12 1.09 1.12 1.21 1.27 1.31
0.82 0.85 0.90 0.93 0.98 1.00 1.03 1.07 1.11 1.08 1.01 0.97 0.98 0.98 0.95 0.99 1.05 1.04 1.05 1.07 1.06 1.07 1.10 1.14 1.17 1.17 1.09 1.02 0.99 1.01 1.01 0.97 0.92 0.94 1.08 1.14 1.12 1.09 1.12 1.19 1.27 1.34
0.86 0.90 0.93 0.95 0.98 1.00 1.05 1.11 1.12 1.06 0.99 0.97 0.97 0.96 0.97 0.97 0.97 1.02 1.04 1.07 1.06 1.05 1.05 1.10 1.12 1.13 1.04 0.99 0.98 0.99 0.99 0.95 0.91 0.96 1.07 1.11 1.11 1.11 1.15 1.20 1.24 1.31
0.92 0.95 0.95 0.97 0.99 1.02 1.06 1.07 1.10 1.02 0.98 0.95 0.91 0.92 0.94 0.96 1.00 1.01 1.03 1.07 1.05 1.02 1.00 1.03 1.04 1.07 0.99 0.96 0.95 0.96 0.96 0.92 0.90 0.96 1.04 1.08 1.11 1.13 1.15 1.20 1.24 1.28
0.94 0.94 0.95 0.99 1.01 1.04 1.05 1.05 1.10 1.01 0.97 0.95 0.94 0.95 0.95 0.95 0.98 0.99 1.00 1.01 1.04 1.03 1.03 1.02 1.04 1.08 1.06 0.98 0.92 0.93 0.94 0.90 0.87 0.91 1.00 1.06 1.11 1.14 1.15 1.20 1.22 1.25
0.94 0.94 0.95 0.98 1.04 1.08 1.08 1.09 1.06 0.98 0.96 0.93 0.92 0.92 0.93 0.94 0.95 0.95 0.96 0.96 0.99 1.02 1.00 0.95 1.00 0.98 0.95 0.95 0.91 0.92 0.93 0.89 0.87 0.94 0.99 1.03 1.09 1.14 1.17 1.18 1.19 1.24
0.96 0.96 0.97 1.00 1.03 1.07 1.07 1.03 0.98 0.95 0.94 0.97 0.95 0.95 0.97 0.98 0.98 0.99 1.01 1.03 1.05 1.04 1.00 0.95 0.97 0.98 0.96 0.96 0.94 0.93 0.95 0.92 0.92 0.93 0.97 1.03 1.07 1.09 1.16 1.16 1.19 1.21
0.98 0.98 0.97 0.96 0.99 0.99 1.01 0.98 0.92 0.92 0.93 0.97 0.95 0.95 0.94 0.94 0.92 0.93 0.99 1.04 1.05 1.04 1.00 0.98 0.98 1.00 0.99 0.98 0.95 0.94 0.93 0.93 0.90 0.90 0.96 1.00 1.05 1.08 1.13 1.16 1.16 1.20
1.00 0.98 0.93 0.94 0.96 0.98 0.97 0.95 0.92 0.93 0.96 1.06 1.00 0.97 0.97 0.99 1.00 1.03 1.10 1.15 1.10 1.08 1.08 1.05 0.99 1.01 1.05 1.03 0.98 0.97 0.96 0.92 0.90 0.92 0.95 0.98 1.04 1.08 1.09 1.13 1.16 1.16
1.00 0.95 0.93 0.93 0.94 0.95 0.95 0.92 0.94 1.00 1.06 1.10 1.07 1.05 1.08 1.08 1.02 1.01 1.04 1.13 1.19 1.11 1.06 1.08 1.10 1.08 1.08 1.05 1.01 1.00 1.00 1.01 0.98 0.95 0.93 0.95 0.98 1.00 1.04 1.08 1.12 1.16
0.99 0.94 0.92 0.92 0.94 0.95 0.97 0.97 0.97 0.91 0.90 0.94 0.97 0.99 1.01 1.03 1.04 1.05 1.06 1.09 1.15 1.21 1.16 1.10 1.10 1.11 1.13 1.08 1.05 1.04 1.05 1.06 1.06 0.99 0.94 0.95 0.97 0.96 0.94 0.98 1.05 1.12
Wind_Speed
19 19 18 18 18 18 19 20 21 22 22 22 22 23 23 24 24 24 24 24 24 24 23 23 23 24 24 24 24 24 25 25 26 27 28 29 30 30 31 31 32 32
19 19 18 18 18 19 20 21 21 22 22 22 23 23 23 23 24 24 24 24 24 24 23 23 23 23 24 23 24 24 24 24 25 26 27 28 29 30 31 32 33 33
19 19 18 18 19 19 20 21 22 22 22 22 22 23 23 23 24 24 24 24 24 24 23 23 24 24 24 24 24 24 24 24 25 26 27 28 29 29 30 31 32 33
20 19 19 19 19 20 21 21 22 22 22 22 23 23 23 23 24 24 24 24 24 24 24 24 24 24 24 24 24 24 24 25 25 26 27 28 29 30 30 31 32 33
20 20 20 19 20 20 21 22 22 22 23 23 23 23 23 24 24 24 24 24 24 24 24 25 25 25 25 25 25 25 25 25 26 27 27 28 29 30 31 31 32 33
21 21 20 20 21 21 22 22 22 23 23 23 23 23 24 24 25 25 25 25 25 24 24 25 25 25 25 24 25 25 26 26 26 27 28 29 29 30 31 32 33 34
22 21 21 21 21 22 22 23 23 23 23 24 24 24 24 25 26 26 26 25 25 25 25 25 25 25 24 24 24 25 26 27 27 27 28 29 30 30 31 32 33 34
22 22 22 22 22 22 23 23 23 23 24 24 25 25 25 26 26 26 26 26 25 25 25 25 25 25 24 24 25 25 26 27 27 27 28 29 30 30 30 31 33 34
23 22 22 22 22 23 23 23 24 24 24 25 26 26 26 26 27 26 26 26 26 25 25 25 25 25 25 25 25 25 26 27 27 27 28 28 29 30 30 30 32 33
23 23 22 23 23 23 23 24 24 25 25 26 26 27 27 27 27 27 27 27 26 26 25 25 25 26 25 25 25 25 26 26 27 27 27 28 28 29 29 30 31 32
23 23 23 23 23 24 24 25 25 26 26 26 26 27 28 28 28 28 27 27 27 26 26 26 26 26 26 26 26 26 26 26 27 27 28 28 28 28 29 29 30 31
23 23 23 24 24 24 25 25 26 26 26 26 27 27 28 28 28 28 28 28 27 27 27 27 27 26 27 27 26 26 26 26 27 27 28 28 28 29 29 29 30 30
24 24 24 24 24 25 25 26 26 26 27 27 27 28 28 28 29 29 28 28 28 28 28 28 27 27 27 26 26 26 26 26 27 27 27 27 28 29 29 29 29 29
24 24 24 24 25 25 26 26 26 27 27 28 28 28 29 29 29 29 28 28 28 29 29 28 27 27 26 26 25 25 25 26 26 26 27 27 27 28 29 29 29 28
24 24 24 25 25 25 26 26 27 28 28 28 28 29 29 29 29 29 29 28 29 29 29 28 27 26 25 25 25 24 25 25 25 26 26 26 27 28 29 29 28 26
24 25 25 25 25 26 26 27 28 28 28 28 29 29 29 29 29 29 28 28 28 29 28 27 26 25 24 24 24 24 24 24 25 25 25 25 26 27 28 29 28 24
25 25 25 25 26 26 26 27 28 28 28 28 29 29 29 29 29 29 28 28 28 28 28 27 25 24 23 23 24 24 24 24 24 24 24 24 25 27 27 28 27 23
25 25 26 26 26 27 27 27 28 28 28 29 29 29 29 29 29 29 28 28 28 28 27 26 24 23 23 23 23 23 23 23 23 23 23 23 24 25 26 26 24 21
25 26 26 27 27 27 28 28 28 28 29 29 29 29 29 29 29 28 28 27 27 26 26 24 23 22 22 22 22 22 22 22 22 22 22 22 23 24 24 24 23 20
26 26 27 27 27 28 28 28 28 28 29 29 28 28 29 29 28 28 27 27 26 25 24 23 22 21 21 21 21 21 21 21 21 21 21 22 22 22 23 24 23 21
26 26 27 27 27 27 27 27 28 28 28 28 28 28 28 28 28 27 27 26 25 24 23 22 21 21 21 21 20 20 20 20 21 21 21 21 21 22 23 24 23 22
26 27 27 27 27 28 27 27 27 28 28 29 29 28 28 27 27 26 26 25 24 22 22 21 20 20 20 20 20 20 20 20 21 21 20 21 21 22 22 23 23 22
27 27 28 28 28 28 27 27 28 28 28 29 28 28 27 27 26 25 24 23 22 22 21 21 20 20 20 20 19 19 20 21 21 21 20 21 21 22 22 22 23 22
27 27 28 28 28 27 27 28 28 28 28 28 28 27 27 26 26 25 24 23 22 21 21 21 21 20 19 19 19 19 20 20 21 21 21 21 21 21 22 22 22 22
27 28 28 28 28 28 28 28 28 28 28 28 28 27 27 26 26 26 25 23 22 22 22 21 21 20 18 18 18 18 19 20 20 20 21 21 21 22 22 22 22 22
27 28 28 28 28 28 28 28 28 28 29 28 28 28 27 27 26 25 24 23 22 22 21 21 20 19 18 18 18 18 18 19 20 20 20 21 21 21 22 21 21 22
Wind_Direction
317 316 316 315 315 317 318 319 319 319 319 318 317 317 318 318 318 318 318 318 316 313 310 308 305 303 300 297 295 294 292 290 287 283 280 277 274 272 270 268 264 261
317 316 315 315 315 316 318 319 319 319 317 317 317 317 318 317 317 318 318 318 317 314 312 309 307 305 302 299 297 296 295 293 291 287 283 280 277 274 272 270 267 263
317 316 314 314 314 316 318 319 319 318 317 316 316 317 317 317 317 318 318 318 316 314 312 309 308 306 304 301 298 298 297 296 294 291 287 283 279 277 274 271 269 266
316 315 313 313 313 315 317 318 318 318 317 316 315 315 316 317 317 318 318 317 316 313 311 309 308 306 303 301 299 298 298 297 296 293 290 286 282 279 276 272 269 267
315 314 313 312 312 313 315 317 317 318 317 316 315 315 315 316 316 317 317 316 315 312 311 310 308 306 303 300 299 298 299 298 297 295 292 290 286 282 278 274 271 268
314 313 312 311 311 312 314 315 316 316 316 316 315 315 315 315 316 316 316 315 314 312 310 310 309 308 304 301 299 299 299 299 298 296 294 292 290 286 282 277 273 270
313 312 311 310 310 311 312 313 314 315 315 315 315 314 315 315 316 316 316 315 313 311 309 309 310 309 306 303 301 301 301 300 300 299 297 295 293 290 285 280 275 271
312 311 310 309 309 310 311 312 312 313 313 313 314 314 314 315 315 316 316 315 313 311 309 309 309 309 308 306 304 303 303 303 302 301 300 298 296 293 290 284 277 272
311 311 309 308 308 309 310 311 311 312 312 312 313 313 313 313 314 314 315 314 313 311 310 309 308 308 308 307 305 305 305 304 304 303 301 300 299 297 294 290 283 275
310 310 309 308 307 308 309 310 311 312 312 312 312 312 312 312 312 313 313 313 312 311 310 309 307 306 306 306 306 306 306 305 304 304 303 302 302 300 298 295 288 280
309 309 308 307 307 307 308 309 310 311 311 311 312 312 312 312 311 311 312 311 311 310 309 308 306 305 305 305 306 306 306 306 305 305 304 304 304 304 303 299 293 285
308 308 307 307 307 307 308 309 310 310 311 311 312 312 312 312 311 311 310 310 309 309 308 307 305 304 304 304 305 306 307 307 307 306 305 305 305 305 305 303 298 290
308 308 307 307 307 307 308 309 309 309 310 310 311 312 312 311 311 310 310 308 307 307 306 305 304 304 304 304 304 305 306 308 308 307 307 307 307 307 307 307 302 293
308 307 308 308 308 308 308 309 308 309 309 310 311 311 311 311 311 310 309 307 306 306 306 305 303 303 303 304 304 304 306 308 309 309 309 310 310 311 311 310 306 297
307 308 308 308 308 308 309 309 308 309 309 310 310 310 310 310 310 310 308 307 306 305 305 304 303 302 302 303 303 303 305 308 309 310 311 311 313 315 314 313 310 302
307 307 308 308 307 308 309 309 309 309 309 310 311 310 309 309 310 309 308 307 306 305 304 303 302 301 301 301 301 302 305 308 309 310 311 311 315 318 318 318 316 306
307 307 307 307 307 308 309 309 309 310 310 311 311 310 309 309 310 309 308 307 306 306 304 303 302 300 300 300 299 301 305 308 309 310 311 312 316 320 322 323 321 311
306 306 306 306 307 307 308 309 309 310 310 311 311 310 310 310 309 309 308 307 307 305 304 303 301 299 298 299 300 301 304 307 308 309 310 312 317 322 325 327 326 317
306 305 305 306 306 307 308 308 309 310 310 311 311 310 310 309 309 309 308 307 306 305 304 303 301 299 299 300 300 302 304 306 308 308 309 312 317 322 325 329 330 325
306 306 306 306 306 307 307 308 309 310 311 312 311 311 310 310 309 309 308 307 306 305 304 303 301 300 301 302 302 302 304 306 307 307 308 311 315 320 324 328 331 328
307 307 307 307 307 307 307 308 309 310 311 312 312 311 310 310 309 309 308 306 306 305 304 303 302 301 302 303 302 302 304 305 306 307 308 310 313 318 323 328 330 328
307 307 308 308 307 307 307 307 308 309 310 311 311 311 310 310 309 309 308 307 306 305 304 303 303 302 303 304 302 301 303 305 306 307 308 309 312 316 322 327 330 329
307 308 308 308 308 307 307 307 308 308 308 310 310 311 310 310 310 311 310 308 307 306 304 303 304 303 303 303 302 301 302 305 306 307 308 309 311 314 319 324 327 328
306 307 307 308 308 307 306 307 307 307 308 310 310 310 310 310 310 310 310 308 307 306 305 304 304 304 303 303 303 302 302 304 306 307 308 309 311 313 316 320 323 325
305 306 306 307 307 306 306 307 307 307 309 309 309 308 308 308 308 307 307 306 305 306 306 304 303 303 303 304 304 304 304 306 307 307 308 310 311 312 314 317 320 322
304 305 306 306 306 306 306 306 306 307 307 306 306 305 305 305 305 305 304 304 303 305 306 304 303 304 304 304 305 306 307 307 308 309 309 310 311 312 313 315 317 319